Find Starlink 32406

NORAD ID: 61545 Int'l Des: 2024-184 Owner: SPXS Country: US Constellation: starlink operational
LEOCIRCULAR

当前视图

正在加载3D地球...

About Starlink 32406

Starlink 32406 (NORAD 61545) is a starlink constellation satellite (v2 mini) launched Oct 15, 2024 by SPXS of US. It operates in LEO, CIRCULAR orbit with a mass of 730.00 kg.

即将过境

Passes for default location (London). Set your location on the main map for personalized predictions.

高度历史

Loading altitude history...

两行轨道根数

1 61545U 24184P 26263.27690514 .00002377 00000-0 81464-4 0 9999
2 61545 53.1619 186.9511 0001386 80.2305 279.8854 15.34402994108345
Epoch: Sep 20, 2026 • Age: 27 hours

当前状态

高度 463.5 km
远地点 / 近地点 N/A
速度 7.64 km/s
星下点 -0.21°S, 43.06°E
发射日期 Oct 15, 2024
运行时间 1.9 years
类型 internet

技术详情

分类 Payload
质量 730.00 kg
干质量 700.00 kg
长度 0.30 m
跨度 29.00 m
形状 ? Box + pan
制造商 SPXS
平台类型 Starlink V2M
阶段状态 In Orbit
所有者/国家 SPXS/US

Most Searched